| time (UTC) | temp C | wind direction | speed KPH | gust KPH | rain 1hr cm | rain 24hr cm | rain mn cm | humidity % | barometer mb |
| 20260504213026 | 23 | 202 | 8.0 | 14.5 | 0.00 | 0.00 | 0.00 | 40 | 1013.2 |
| 20260504211525 | 23 | 158 | 3.2 | 17.7 | 0.00 | 0.00 | 0.00 | 39 | 1013.5 |
| 20260504210033 | 23 | 211 | 1.6 | 11.3 | 0.00 | 0.00 | 0.00 | 41 | 1013.5 |
| 20260504204529 | 23 | 190 | 0.0 | 16.1 | 0.00 | 0.00 | 0.00 | 40 | 1013.8 |
| 20260504203024 | 23 | 148 | 0.0 | 9.7 | 0.00 | 0.00 | 0.00 | 42 | 1014.0 |
| 20260504201516 | 22 | 148 | 0.0 | 9.7 | 0.00 | 0.00 | 0.00 | 45 | 1014.2 |
| 20260504200043 | 22 | 226 | 0.0 | 14.5 | 0.00 | 0.00 | 0.00 | 46 | 1014.3 |
| 20260504194541 | 22 | 147 | 0.0 | 11.3 | 0.00 | 0.00 | 0.00 | 47 | 1014.7 |
| 20260504193037 | 22 | 158 | 0.0 | 11.3 | 0.00 | 0.00 | 0.00 | 46 | 1015.0 |
| 20260504191533 | 22 | 221 | 0.0 | 6.4 | 0.00 | 0.00 | 0.00 | 48 | 1015.3 |
| 20260504190030 | 21 | 171 | 0.0 | 11.3 | 0.00 | 0.00 | 0.00 | 48 | 1015.6 |
| 20260504184528 | 21 | 98 | 0.0 | 12.9 | 0.00 | 0.00 | 0.00 | 48 | 1015.8 |
| 20260504183026 | 21 | 85 | 0.0 | 11.3 | 0.00 | 0.00 | 0.00 | 47 | 1016.0 |
| 20260504183024 | 21 | 86 | 0.0 | 11.3 | 0.00 | 0.00 | 0.00 | 47 | 1016.0 |
| 20260504181519 | 20 | 167 | 1.6 | 19.3 | 0.00 | 0.00 | 0.00 | 48 | 1016.2 |
| 20260504180016 | 20 | 181 | 0.0 | 6.4 | 0.00 | 0.00 | 0.00 | 47 | 1016.4 |
| 20260504174513 | 20 | 212 | 0.0 | 19.3 | 0.00 | 0.00 | 0.00 | 48 | 1016.7 |
| 20260504173011 | 19 | 105 | 0.0 | 9.7 | 0.00 | 0.00 | 0.00 | 47 | 1016.6 |
| 20260504171507 | 19 | 175 | 0.0 | 0.0 | 0.00 | 0.00 | 0.00 | 48 | 1017.1 |
| 20260504081558 | 5 | 113 | 0.0 | 0.0 | 0.00 | 0.00 | 0.00 | 86 | 1018.5 |
| 20260504050002 | 6 | 95 | 0.0 | 0.0 | 0.00 | 0.00 | 0.00 | 77 | 1018.6 |
| 20260504044505 | 6 | 97 | 0.0 | 0.0 | 0.00 | 0.00 | 0.00 | 77 | 1018.6 |
| 20260504043001 | 7 | 115 | 0.0 | 0.0 | 0.00 | 0.00 | 0.00 | 77 | 1018.6 |
| 20260504041503 | 7 | 108 | 0.0 | 0.0 | 0.00 | 0.00 | 0.00 | 76 | 1018.6 |
| 20260504040059 | 7 | 101 | 0.0 | 0.0 | 0.00 | 0.00 | 0.00 | 76 | 1018.5 |
| 20260504034618 | 7 | 91 | 0.0 | 0.0 | 0.00 | 0.00 | 0.00 | 76 | 1018.7 |
| 20260504033058 | 7 | 91 | 0.0 | 0.0 | 0.00 | 0.00 | 0.00 | 77 | 1018.5 |
| 20260504031558 | 7 | 91 | 0.0 | 0.0 | 0.00 | 0.00 | 0.00 | 74 | 1018.5 |
| 20260504030056 | 7 | 109 | 0.0 | 0.0 | 0.00 | 0.00 | 0.00 | 75 | 1018.3 |
| 20260504024656 | 7 | 109 | 0.0 | 0.0 | 0.00 | 0.00 | 0.00 | 75 | 1018.5 |
| 20260504023055 | 7 | 78 | 0.0 | 0.0 | 0.00 | 0.00 | 0.00 | 73 | 1018.5 |
| 20260504021655 | 7 | 53 | 0.0 | 0.0 | 0.00 | 0.00 | 0.00 | 74 | 1018.2 |
| 20260504020049 | 8 | 52 | 0.0 | 0.0 | 0.00 | 0.00 | 0.00 | 70 | 1018.3 |
| 20260504014546 | 8 | 91 | 0.0 | 0.0 | 0.00 | 0.00 | 0.00 | 70 | 1018.0 |
| 20260504013102 | 8 | 105 | 0.0 | 0.0 | 0.00 | 0.00 | 0.00 | 68 | 1018.3 |
| 20260504011650 | 9 | 151 | 0.0 | 0.0 | 0.00 | 0.00 | 0.00 | 65 | 1018.3 |
| 20260504010046 | 10 | 151 | 0.0 | 0.0 | 0.00 | 0.00 | 0.00 | 62 | 1018.2 |
| 20260504004544 | 11 | 151 | 0.0 | 0.0 | 0.00 | 0.00 | 0.00 | 60 | 1017.8 |
| 20260504003043 | 12 | 151 | 0.0 | 0.0 | 0.00 | 0.00 | 0.00 | 54 | 1017.7 |
| 20260504001643 | 13 | 151 | 0.0 | 0.0 | 0.00 | 0.00 | 0.00 | 46 | 1017.6 |
| 20260504000023 | 14 | 146 | 0.0 | 0.0 | 0.00 | 0.00 | 0.00 | 43 | 1017.6 |
| 20260503234522 | 15 | 201 | 0.0 | 4.8 | 0.00 | 0.00 | 0.00 | 40 | 1017.7 |
| 20260503233020 | 15 | 132 | 0.0 | 3.2 | 0.00 | 0.00 | 0.00 | 38 | 1017.7 |
| 20260503231518 | 16 | 158 | 0.0 | 0.0 | 0.00 | 0.00 | 0.00 | 38 | 1017.9 |
| 20260503230034 | 16 | 210 | 1.6 | 9.7 | 0.00 | 0.00 | 0.00 | 38 | 1017.7 |
| 20260503224516 | 16 | 201 | 0.0 | 1.6 | 0.00 | 0.00 | 0.00 | 35 | 1018.0 |
| 20260503223012 | 16 | 180 | 0.0 | 14.5 | 0.00 | 0.00 | 0.00 | 37 | 1018.1 |
| 20260503221511 | 16 | 184 | 0.0 | 6.4 | 0.00 | 0.00 | 0.00 | 35 | 1018.2 |
| 20260503220010 | 16 | 135 | 1.6 | 9.7 | 0.00 | 0.00 | 0.00 | 36 | 1018.3 |
| 20260503214524 | 16 | 193 | 0.0 | 12.9 | 0.00 | 0.00 | 0.00 | 34 | 1018.3 |